Location: Ariel
(45.9570°N, 122.5700°W)
Time: 17:21:36
(UTC-07:00)

Transit 4A - Pass Details

Date: 28 July 2019
Orbit: 863 x 981 km, 66.8° (Epoch: 20 August)

Event Time Altitude Azimuth Distance (km) Brightness Sun altitude
Rises 00:17:33 0° 185° (S) 3,637 - -23.6°
Reaches altitude 10° 00:20:15 10° 177° (S) 2,706 - -23.8°
Exits shadow 00:25:43 38° 118° (ESE) 1,449 8.6 -24.0°
Maximum altitude 00:26:02 38° 111° (ESE) 1,444 8.6 -24.0°
Drops below altitude 10° 00:31:53 10° 46° (NE) 2,741 10.7 -24.2°
Sets 00:34:37 0° 39° (NE) 3,689 11.6 -24.3°
